"Sample Date","Sample Time","Sample Value","Units","Flow Rate","Sample Interval","Number Channels","Micron Size 0","Counts/Channel 0","Micron Size 1","Counts/Channel 1","Micron Size 2","Counts/Channel 2","Micron Size 3","Counts/Channel 3","Micron Size 4","Counts/Channel 4","Micron Size 5","Counts/Channel 5","Micron Size 6","Counts/Channel 6","Micron Size 7","Counts/Channel 7","Micron Size 8","Counts/Channel 8","Micron Size 9","Counts/Channel 9","Micron Size 10","Counts/Channel 10","Micron Size 11","Counts/Channel 11","Micron Size 12","Counts/Channel 12","Micron Size 13","Counts/Channel 13","Micron Size 14","Counts/Channel 14","Micron Size 15","Counts/Channel 15","Micron Size 16","Counts/Channel 16","Micron Size 17","Counts/Channel 17","Micron Size 18","Counts/Channel 18","Micron Size 19","Counts/Channel 19","Micron Size 20","Counts/Channel 20","Micron Size 21","Counts/Channel 21","Micron Size 22","Counts/Channel 22","Micron Size 23","Counts/Channel 23","Micron Size 24","Counts/Channel 24","Micron Size 25","Counts/Channel 25","Micron Size 26","Counts/Channel 26","Micron Size 27","Counts/Channel 27","Micron Size 28","Counts/Channel 28","Micron Size 29","Counts/Channel 29","Micron Size 30","Counts/Channel 30","Micron Size 31","Counts/Channel 31"
"04/06/08","17:00:01",10034.000,"cc",28294.275,6.00,6,0.100,7451.000,0.200,831.000,0.300,688.000,0.500,790.000,1.000,274.000,5.000,0
"04/06/08","17:00:07",9318.000,"cc",28274.979,6.00,6,0.100,7081.000,0.200,760.000,0.300,591.000,0.500,665.000,1.000,221.000,5.000,0
"04/06/08","17:00:13",9419.000,"cc",28269.508,6.00,6,0.100,7135.000,0.200,838.000,0.300,514.000,0.500,688.000,1.000,244.000,5.000,0
"04/06/08","17:00:19",8259.000,"cc",28349.813,6.00,6,0.100,6424.000,0.200,642.000,0.300,482.000,0.500,526.000,1.000,185.000,5.000,0
"04/06/08","17:00:25",8603.000,"cc",28319.818,6.00,6,0.100,6684.000,0.200,692.000,0.300,463.000,0.500,567.000,1.000,197.000,5.000,0
"04/06/08","17:00:31",8555.000,"cc",28287.955,6.00,6,0.100,6614.000,0.200,680.000,0.300,502.000,0.500,542.000,1.000,217.000,5.000,0
"04/06/08","17:00:37",8940.000,"cc",28331.709,6.00,6,0.100,6782.000,0.200,728.000,0.300,553.000,0.500,633.000,1.000,244.000,5.000,0
"04/06/08","17:00:43",8007.000,"cc",28418.611,6.00,6,0.100,6258.000,0.200,595.000,0.300,459.000,0.500,507.000,1.000,188.000,5.000,0
"04/06/08","17:00:49",8585.000,"cc",28268.686,6.00,6,0.100,6596.000,0.200,674.000,0.300,517.000,0.500,561.000,1.000,237.000,5.000,0
"04/06/08","17:00:55",8714.000,"cc",28323.102,6.00,6,0.100,6586.000,0.200,750.000,0.300,533.000,0.500,598.000,1.000,247.000,5.000,0
"04/06/08","17:01:01",8316.000,"cc",28317.797,6.00,6,0.100,6377.000,0.200,673.000,0.300,510.000,0.500,550.000,1.000,206.000,5.000,0
"04/06/08","17:01:07",8815.000,"cc",28166.543,6.00,6,0.100,6623.000,0.200,818.000,0.300,537.000,0.500,612.000,1.000,225.000,5.000,0
"04/06/08","17:01:13",8718.000,"cc",28163.756,6.00,6,0.100,6563.000,0.200,764.000,0.300,556.000,0.500,607.000,1.000,227.000,5.000,1.000
"04/06/08","17:01:19",8982.000,"cc",28417.020,6.00,6,0.100,6738.000,0.200,806.000,0.300,563.000,0.500,654.000,1.000,221.000,5.000,0
"04/06/08","17:01:25",9469.000,"cc",28345.328,6.00,6,0.100,6748.000,0.200,894.000,0.300,697.000,0.500,811.000,1.000,319.000,5.000,0
"04/06/08","17:01:31",8745.000,"cc",28315.707,6.00,6,0.100,6685.000,0.200,744.000,0.300,529.000,0.500,585.000,1.000,202.000,5.000,0
"04/06/08","17:01:37",8442.000,"cc",28321.822,6.00,6,0.100,6676.000,0.200,658.000,0.300,471.000,0.500,439.000,1.000,198.000,5.000,0
"04/06/08","17:01:43",8386.000,"cc",28325.525,6.00,6,0.100,6503.000,0.200,635.000,0.300,499.000,0.500,521.000,1.000,228.000,5.000,0
"04/06/08","17:01:49",8427.000,"cc",28161.334,6.00,6,0.100,6722.000,0.200,632.000,0.300,436.000,0.500,462.000,1.000,175.000,5.000,0
"04/06/08","17:01:55",8798.000,"cc",28389.988,6.00,6,0.100,6791.000,0.200,694.000,0.300,501.000,0.500,606.000,1.000,206.000,5.000,0
"04/06/08","17:02:01",8874.000,"cc",28273.484,6.00,6,0.100,6859.000,0.200,685.000,0.300,533.000,0.500,581.000,1.000,216.000,5.000,0
"04/06/08","17:02:07",9005.000,"cc",28305.418,6.00,6,0.100,6882.000,0.200,734.000,0.300,576.000,0.500,586.000,1.000,227.000,5.000,0
"04/06/08","17:02:13",8857.000,"cc",28338.707,6.00,6,0.100,6869.000,0.200,713.000,0.300,521.000,0.500,557.000,1.000,197.000,5.000,0
"04/06/08","17:02:19",9237.000,"cc",28351.824,6.00,6,0.100,7017.000,0.200,806.000,0.300,536.000,0.500,639.000,1.000,238.000,5.000,1.000
"04/06/08","17:02:25",9211.000,"cc",28291.611,6.00,6,0.100,6899.000,0.200,827.000,0.300,587.000,0.500,658.000,1.000,240.000,5.000,0
"04/06/08","17:02:31",8788.000,"cc",28379.781,6.00,6,0.100,6807.000,0.200,675.000,0.300,499.000,0.500,587.000,1.000,220.000,5.000,0
"04/06/08","17:02:37",9533.000,"cc",28302.148,6.00,6,0.100,7177.000,0.200,839.000,0.300,598.000,0.500,668.000,1.000,251.000,5.000,0
"04/06/08","17:02:43",10030.000,"cc",28360.420,6.00,6,0.100,7552.000,0.200,833.000,0.300,669.000,0.500,716.000,1.000,260.000,5.000,0
"04/06/08","17:02:49",10203.000,"cc",28376.256,6.00,6,0.100,7834.000,0.200,860.000,0.300,595.000,0.500,646.000,1.000,268.000,5.000,0
"04/06/08","17:02:55",10168.000,"cc",28307.734,6.00,6,0.100,7979.000,0.200,764.000,0.300,526.000,0.500,634.000,1.000,265.000,5.000,0
"04/06/08","17:03:01",10584.000,"cc",28286.397,6.00,6,0.100,8356.000,0.200,741.000,0.300,559.000,0.500,673.000,1.000,255.000,5.000,0
"04/06/08","17:03:07",10703.000,"cc",28247.303,6.00,6,0.100,8486.000,0.200,781.000,0.300,531.000,0.500,658.000,1.000,247.000,5.000,0
"04/06/08","17:03:13",10924.000,"cc",28320.965,6.00,6,0.100,8548.000,0.200,780.000,0.300,596.000,0.500,724.000,1.000,276.000,5.000,0
"04/06/08","17:03:19",11002.000,"cc",28324.158,6.00,6,0.100,8592.000,0.200,848.000,0.300,614.000,0.500,675.000,1.000,273.000,5.000,0
"04/06/08","17:03:25",11127.000,"cc",28266.123,6.00,6,0.100,8659.000,0.200,840.000,0.300,628.000,0.500,731.000,1.000,269.000,5.000,0
"04/06/08","17:03:31",10954.000,"cc",28309.883,6.00,6,0.100,8534.000,0.200,850.000,0.300,634.000,0.500,673.000,1.000,263.000,5.000,0
"04/06/08","17:03:37",10869.000,"cc",28271.606,6.00,6,0.100,8551.000,0.200,810.000,0.300,567.000,0.500,689.000,1.000,252.000,5.000,0
"04/06/08","17:03:43",11730.000,"cc",28341.098,6.00,6,0.100,8929.000,0.200,995.000,0.300,715.000,0.500,801.000,1.000,290.000,5.000,0
"04/06/08","17:03:49",11693.000,"cc",28316.451,6.00,6,0.100,8753.000,0.200,1047.000,0.300,765.000,0.500,827.000,1.000,301.000,5.000,0
"04/06/08","17:03:55",11169.000,"cc",28251.850,6.00,6,0.100,8656.000,0.200,922.000,0.300,620.000,0.500,730.000,1.000,241.000,5.000,0
"04/06/08","17:04:01",11371.000,"cc",28417.486,6.00,6,0.100,8697.000,0.200,936.000,0.300,702.000,0.500,768.000,1.000,268.000,5.000,0
"04/06/08","17:04:07",11971.000,"cc",28288.568,6.00,6,0.100,8859.000,0.200,1190.000,0.300,838.000,0.500,766.000,1.000,318.000,5.000,0
"04/06/08","17:04:13",12256.000,"cc",28345.361,6.00,6,0.100,9019.000,0.200,1152.000,0.300,817.000,0.500,895.000,1.000,373.000,5.000,0
"04/06/08","17:04:19",12203.000,"cc",28229.887,6.00,6,0.100,9024.000,0.200,1110.000,0.300,799.000,0.500,921.000,1.000,349.000,5.000,0
"04/06/08","17:04:25",12333.000,"cc",28332.684,6.00,6,0.100,9074.000,0.200,1165.000,0.300,821.000,0.500,916.000,1.000,357.000,5.000,0
"04/06/08","17:04:31",12630.000,"cc",28387.088,6.00,6,0.100,9242.000,0.200,1230.000,0.300,847.000,0.500,938.000,1.000,373.000,5.000,0
"04/06/08","17:04:37",12647.000,"cc",28406.805,6.00,6,0.100,9185.000,0.200,1171.000,0.300,872.000,0.500,990.000,1.000,429.000,5.000,0
"04/06/08","17:04:43",12289.000,"cc",28153.906,6.00,6,0.100,9213.000,0.200,1110.000,0.300,775.000,0.500,835.000,1.000,356.000,5.000,0
"04/06/08","17:04:49",12687.000,"cc",28252.537,6.00,6,0.100,9293.000,0.200,1256.000,0.300,904.000,0.500,889.000,1.000,345.000,5.000,0
"04/06/08","17:04:55",13237.000,"cc",28430.072,6.00,6,0.100,9396.000,0.200,1283.000,0.300,952.000,0.500,1098.000,1.000,508.000,5.000,0
"04/06/08","17:05:01",12236.000,"cc",28295.260,6.00,6,0.100,8990.000,0.200,1111.000,0.300,832.000,0.500,904.000,1.000,399.000,5.000,0
"04/06/08","17:05:07",12261.000,"cc",28370.455,6.00,6,0.100,8898.000,0.200,1082.000,0.300,869.000,0.500,953.000,1.000,459.000,5.000,0
"04/06/08","17:05:13",12715.000,"cc",28356.699,6.00,6,0.100,8890.000,0.200,1268.000,0.300,958.000,0.500,1130.000,1.000,469.000,5.000,0
"04/06/08","17:05:19",12848.000,"cc",28271.354,6.00,6,0.100,9106.000,0.200,1228.000,0.300,886.000,0.500,1143.000,1.000,485.000,5.000,0
"04/06/08","17:05:25",12400.000,"cc",28327.334,6.00,6,0.100,8987.000,0.200,1087.000,0.300,873.000,0.500,964.000,1.000,489.000,5.000,0
"04/06/08","17:05:31",22887.000,"cc",28259.059,6.00,6,0.100,12204.000,0.200,3449.000,0.300,2704.000,0.500,3076.000,1.000,1454.000,5.000,0
"04/06/08","17:05:37",18820.000,"cc",28398.211,6.00,6,0.100,11154.000,0.200,2545.000,0.300,2065.000,0.500,2196.000,1.000,860.000,5.000,0
"04/06/08","17:05:43",12584.000,"cc",28131.131,6.00,6,0.100,9162.000,0.200,1179.000,0.300,919.000,0.500,910.000,1.000,414.000,5.000,0
"04/06/08","17:05:49",12711.000,"cc",28417.191,6.00,6,0.100,9018.000,0.200,1217.000,0.300,899.000,0.500,1087.000,1.000,490.000,5.000,0
"04/06/08","17:05:55",12624.000,"cc",28321.051,6.00,6,0.100,8981.000,0.200,1245.000,0.300,941.000,0.500,1001.000,1.000,456.000,5.000,0
"04/06/08","17:06:01",12499.000,"cc",28256.326,6.00,6,0.100,8816.000,0.200,1231.000,0.300,956.000,0.500,1064.000,1.000,432.000,5.000,0
"04/06/08","17:06:07",12193.000,"cc",28314.539,6.00,6,0.100,8786.000,0.200,1244.000,0.300,846.000,0.500,892.000,1.000,425.000,5.000,0
"04/06/08","17:06:13",11506.000,"cc",28298.529,6.00,6,0.100,8487.000,0.200,1099.000,0.300,762.000,0.500,808.000,1.000,350.000,5.000,0
"04/06/08","17:06:19",11588.000,"cc",28246.520,6.00,6,0.100,8481.000,0.200,1034.000,0.300,794.000,0.500,904.000,1.000,375.000,5.000,0
"04/06/08","17:06:25",12203.000,"cc",28347.947,6.00,6,0.100,8684.000,0.200,1179.000,0.300,898.000,0.500,987.000,1.000,455.000,5.000,0
"04/06/08","17:06:31",11997.000,"cc",28305.682,6.00,6,0.100,8599.000,0.200,1213.000,0.300,848.000,0.500,926.000,1.000,411.000,5.000,0
"04/06/08","17:06:37",11880.000,"cc",28374.098,6.00,6,0.100,8526.000,0.200,1193.000,0.300,834.000,0.500,910.000,1.000,417.000,5.000,0
"04/06/08","17:06:43",11774.000,"cc",28238.299,6.00,6,0.100,8636.000,0.200,1144.000,0.300,830.000,0.500,796.000,1.000,368.000,5.000,0
"04/06/08","17:06:49",11956.000,"cc",28276.793,6.00,6,0.100,8533.000,0.200,1132.000,0.300,888.000,0.500,1011.000,1.000,392.000,5.000,0
"04/06/08","17:06:55",12990.000,"cc",28338.252,6.00,6,0.100,9054.000,0.200,1391.000,0.300,1000.000,0.500,1060.000,1.000,485.000,5.000,0
"04/06/08","17:07:01",13649.000,"cc",28421.891,6.00,6,0.100,9396.000,0.200,1510.000,0.300,1019.000,0.500,1180.000,1.000,544.000,5.000,0
"04/06/08","17:07:07",13030.000,"cc",28333.916,6.00,6,0.100,8918.000,0.200,1459.000,0.300,978.000,0.500,1137.000,1.000,538.000,5.000,0
"04/06/08","17:07:13",14359.000,"cc",28322.670,6.00,6,0.100,9508.000,0.200,1752.000,0.300,1209.000,0.500,1325.000,1.000,565.000,5.000,0
"04/06/08","17:07:19",47441.000,"cc",28256.709,6.00,6,0.100,20137.000,0.200,8881.000,0.300,7081.000,0.500,7888.000,1.000,3454.000,5.000,0
"04/06/08","17:07:25",15469.000,"cc",28321.000,6.00,6,0.100,9740.000,0.200,1950.000,0.300,1496.000,0.500,1655.000,1.000,628.000,5.000,0
"04/06/08","17:07:31",14960.000,"cc",28309.883,6.00,6,0.100,9701.000,0.200,1951.000,0.300,1387.000,0.500,1351.000,1.000,570.000,5.000,0
"04/06/08","17:07:37",13816.000,"cc",28339.957,6.00,6,0.100,9071.000,0.200,1709.000,0.300,1190.000,0.500,1264.000,1.000,582.000,5.000,0
"04/06/08","17:07:43",13160.000,"cc",28257.041,6.00,6,0.100,8981.000,0.200,1366.000,0.300,1103.000,0.500,1157.000,1.000,553.000,5.000,0
"04/06/08","17:07:49",13015.000,"cc",28296.094,6.00,6,0.100,8918.000,0.200,1448.000,0.300,1041.000,0.500,1142.000,1.000,466.000,5.000,0
"04/06/08","17:07:55",14201.000,"cc",28296.893,6.00,6,0.100,9304.000,0.200,1717.000,0.300,1287.000,0.500,1333.000,1.000,560.000,5.000,0
"04/06/08","17:08:01",13797.000,"cc",28372.662,6.00,6,0.100,9089.000,0.200,1614.000,0.300,1241.000,0.500,1270.000,1.000,583.000,5.000,0
"04/06/08","17:08:07",13402.000,"cc",28356.137,6.00,6,0.100,9132.000,0.200,1425.000,0.300,1099.000,0.500,1215.000,1.000,531.000,5.000,0
"04/06/08","17:08:13",13250.000,"cc",28397.172,6.00,6,0.100,9048.000,0.200,1449.000,0.300,1071.000,0.500,1157.000,1.000,525.000,5.000,0
"04/06/08","17:08:19",12785.000,"cc",28280.863,6.00,6,0.100,8699.000,0.200,1306.000,0.300,1115.000,0.500,1127.000,1.000,538.000,5.000,0
"04/06/08","17:08:25",13730.000,"cc",28290.719,6.00,6,0.100,9096.000,0.200,1596.000,0.300,1183.000,0.500,1239.000,1.000,616.000,5.000,0
"04/06/08","17:08:31",15947.000,"cc",28319.598,6.00,6,0.100,9787.000,0.200,1899.000,0.300,1613.000,0.500,1849.000,1.000,799.000,5.000,0
"04/06/08","17:08:37",13981.000,"cc",28287.291,6.00,6,0.100,9445.000,0.200,1528.000,0.300,1160.000,0.500,1273.000,1.000,575.000,5.000,0
"04/06/08","17:08:43",13640.000,"cc",28396.035,6.00,6,0.100,9518.000,0.200,1416.000,0.300,1036.000,0.500,1141.000,1.000,529.000,5.000,0
"04/06/08","17:08:49",15144.000,"cc",28271.563,6.00,6,0.100,9828.000,0.200,1670.000,0.300,1439.000,0.500,1488.000,1.000,719.000,5.000,0
"04/06/08","17:08:55",14192.000,"cc",28357.084,6.00,6,0.100,9575.000,0.200,1532.000,0.300,1189.000,0.500,1331.000,1.000,565.000,5.000,0
"04/06/08","17:09:01",12457.000,"cc",28286.803,6.00,6,0.100,9056.000,0.200,1078.000,0.300,908.000,0.500,987.000,1.000,428.000,5.000,0
"04/06/08","17:09:07",13576.000,"cc",28316.719,6.00,6,0.100,9709.000,0.200,1339.000,0.300,980.000,0.500,1062.000,1.000,486.000,5.000,0
"04/06/08","17:09:13",12956.000,"cc",28324.010,6.00,6,0.100,9327.000,0.200,1149.000,0.300,856.000,0.500,1084.000,1.000,540.000,5.000,0
"04/06/08","17:09:19",13412.000,"cc",28360.094,6.00,6,0.100,9461.000,0.200,1217.000,0.300,952.000,0.500,1204.000,1.000,578.000,5.000,0
"04/06/08","17:09:25",13331.000,"cc",28277.373,6.00,6,0.100,9381.000,0.200,1237.000,0.300,988.000,0.500,1147.000,1.000,578.000,5.000,0
"04/06/08","17:09:31",12782.000,"cc",28329.844,6.00,6,0.100,9271.000,0.200,1196.000,0.300,867.000,0.500,998.000,1.000,450.000,5.000,0
"04/06/08","17:09:37",12773.000,"cc",28324.463,6.00,6,0.100,9297.000,0.200,1107.000,0.300,859.000,0.500,985.000,1.000,525.000,5.000,0
"04/06/08","17:09:43",13248.000,"cc",28308.934,6.00,6,0.100,9504.000,0.200,1212.000,0.300,976.000,0.500,1062.000,1.000,494.000,5.000,0
"04/06/08","17:09:49",13412.000,"cc",28349.588,6.00,6,0.100,9576.000,0.200,1282.000,0.300,908.000,0.500,1107.000,1.000,539.000,5.000,0
"04/06/08","17:09:55",13362.000,"cc",28310.658,6.00,6,0.100,9442.000,0.200,1269.000,0.300,928.000,0.500,1175.000,1.000,548.000,5.000,0
"04/06/08","17:10:01",13797.000,"cc",28339.969,6.00,6,0.100,9616.000,0.200,1324.000,0.300,1031.000,0.500,1230.000,1.000,596.000,5.000,0
"04/06/08","17:10:07",13155.000,"cc",28299.674,6.00,6,0.100,9364.000,0.200,1228.000,0.300,959.000,0.500,1047.000,1.000,557.000,5.000,0
"04/06/08","17:10:13",12538.000,"cc",28297.164,6.00,6,0.100,9361.000,0.200,1156.000,0.300,747.000,0.500,857.000,1.000,417.000,5.000,0
"04/06/08","17:10:19",13007.000,"cc",28323.656,6.00,6,0.100,9671.000,0.200,1178.000,0.300,805.000,0.500,937.000,1.000,416.000,5.000,0
"04/06/08","17:10:25",12688.000,"cc",28392.857,6.00,6,0.100,9482.000,0.200,1104.000,0.300,745.000,0.500,909.000,1.000,448.000,5.000,0
"04/06/08","17:10:31",12761.000,"cc",28296.074,6.00,6,0.100,9686.000,0.200,1041.000,0.300,774.000,0.500,839.000,1.000,421.000,5.000,0
"04/06/08","17:10:37",12488.000,"cc",28323.701,6.00,6,0.100,9327.000,0.200,984.000,0.300,758.000,0.500,995.000,1.000,424.000,5.000,0
"04/06/08","17:10:43",21641.000,"cc",28339.254,6.00,6,0.100,12452.000,0.200,2988.000,0.300,2334.000,0.500,2583.000,1.000,1284.000,5.000,0
"04/06/08","17:10:49",14075.000,"cc",28277.982,6.00,6,0.100,9859.000,0.200,1437.000,0.300,1085.000,0.500,1165.000,1.000,529.000,5.000,0
"04/06/08","17:10:55",14386.000,"cc",28260.691,6.00,6,0.100,10118.000,0.200,1570.000,0.300,1157.000,0.500,1123.000,1.000,418.000,5.000,0
"04/06/08","17:11:01",13764.000,"cc",28299.291,6.00,6,0.100,9992.000,0.200,1314.000,0.300,979.000,0.500,1048.000,1.000,431.000,5.000,0
"04/06/08","17:11:07",13672.000,"cc",28334.307,6.00,6,0.100,9873.000,0.200,1203.000,0.300,939.000,0.500,1128.000,1.000,529.000,5.000,0
"04/06/08","17:11:13",14214.000,"cc",28234.170,6.00,6,0.100,10169.000,0.200,1347.000,0.300,1037.000,0.500,1146.000,1.000,515.000,5.000,0
"04/06/08","17:11:19",13868.000,"cc",28344.850,6.00,6,0.100,10009.000,0.200,1323.000,0.300,949.000,0.500,1081.000,1.000,506.000,5.000,0
"04/06/08","17:11:25",14002.000,"cc",28328.813,6.00,6,0.100,10436.000,0.200,1201.000,0.300,927.000,0.500,1013.000,1.000,425.000,5.000,0
"04/06/08","17:11:31",13576.000,"cc",28263.844,6.00,6,0.100,10199.000,0.200,1163.000,0.300,871.000,0.500,930.000,1.000,413.000,5.000,0
"04/06/08","17:11:37",13812.000,"cc",28375.795,6.00,6,0.100,10352.000,0.200,1226.000,0.300,886.000,0.500,930.000,1.000,418.000,5.000,0
"04/06/08","17:11:43",13831.000,"cc",28322.547,6.00,6,0.100,10425.000,0.200,1184.000,0.300,895.000,0.500,882.000,1.000,445.000,5.000,0
"04/06/08","17:11:49",13710.000,"cc",28273.014,6.00,6,0.100,10521.000,0.200,1166.000,0.300,833.000,0.500,813.000,1.000,377.000,5.000,0
"04/06/08","17:11:55",13839.000,"cc",28279.772,6.00,6,0.100,10554.000,0.200,1174.000,0.300,796.000,0.500,880.000,1.000,435.000,5.000,0
"04/06/08","17:12:01",14003.000,"cc",28369.506,6.00,6,0.100,10342.000,0.200,1168.000,0.300,913.000,0.500,1078.000,1.000,502.000,5.000,0
"04/06/08","17:12:07",13732.000,"cc",28272.627,6.00,6,0.100,10432.000,0.200,1062.000,0.300,835.000,0.500,940.000,1.000,463.000,5.000,0
"04/06/08","17:12:13",13982.000,"cc",28348.348,6.00,6,0.100,10712.000,0.200,1116.000,0.300,769.000,0.500,962.000,1.000,423.000,5.000,0
"04/06/08","17:12:19",13575.000,"cc",28215.016,6.00,6,0.100,10503.000,0.200,1088.000,0.300,729.000,0.500,857.000,1.000,398.000,5.000,0
"04/06/08","17:12:25",13508.000,"cc",28221.299,6.00,6,0.100,10414.000,0.200,1040.000,0.300,760.000,0.500,871.000,1.000,423.000,5.000,0
"04/06/08","17:12:31",13371.000,"cc",28414.770,6.00,6,0.100,10318.000,0.200,995.000,0.300,757.000,0.500,891.000,1.000,410.000,5.000,0
"04/06/08","17:12:37",14494.000,"cc",28302.617,6.00,6,0.100,10937.000,0.200,1278.000,0.300,877.000,0.500,968.000,1.000,434.000,5.000,0
"04/06/08","17:12:43",14261.000,"cc",28325.262,6.00,6,0.100,10786.000,0.200,1182.000,0.300,888.000,0.500,950.000,1.000,455.000,5.000,0
"04/06/08","17:12:49",13815.000,"cc",28328.473,6.00,6,0.100,10700.000,0.200,1093.000,0.300,759.000,0.500,858.000,1.000,405.000,5.000,0
"04/06/08","17:12:55",14563.000,"cc",28274.402,6.00,6,0.100,10826.000,0.200,1287.000,0.300,950.000,0.500,1049.000,1.000,451.000,5.000,0
"04/06/08","17:13:01",14030.000,"cc",28311.592,6.00,6,0.100,10604.000,0.200,1243.000,0.300,860.000,0.500,903.000,1.000,420.000,5.000,0
"04/06/08","17:13:07",14355.000,"cc",28317.260,6.00,6,0.100,10903.000,0.200,1214.000,0.300,889.000,0.500,891.000,1.000,458.000,5.000,0
"04/06/08","17:13:13",14600.000,"cc",28297.469,6.00,6,0.100,10952.000,0.200,1171.000,0.300,949.000,0.500,1047.000,1.000,481.000,5.000,0
"04/06/08","17:13:19",14600.000,"cc",28214.897,6.00,6,0.100,11223.000,0.200,1312.000,0.300,806.000,0.500,880.000,1.000,379.000,5.000,0
"04/06/08","17:13:25",14674.000,"cc",28440.273,6.00,6,0.100,11062.000,0.200,1226.000,0.300,900.000,0.500,1010.000,1.000,476.000,5.000,0
"04/06/08","17:13:31",15519.000,"cc",28311.676,6.00,6,0.100,11357.000,0.200,1471.000,0.300,997.000,0.500,1128.000,1.000,566.000,5.000,0
"04/06/08","17:13:37",14560.000,"cc",28313.551,6.00,6,0.100,10950.000,0.200,1300.000,0.300,895.000,0.500,978.000,1.000,437.000,5.000,0
"04/06/08","17:13:43",14780.000,"cc",28316.469,6.00,6,0.100,10997.000,0.200,1286.000,0.300,950.000,0.500,1049.000,1.000,498.000,5.000,0
"04/06/08","17:13:49",15252.000,"cc",28333.682,6.00,6,0.100,11004.000,0.200,1371.000,0.300,1021.000,0.500,1253.000,1.000,603.000,5.000,0
"04/06/08","17:13:55",14476.000,"cc",28269.615,6.00,6,0.100,10966.000,0.200,1226.000,0.300,822.000,0.500,984.000,1.000,478.000,5.000,0
"04/06/08","17:14:01",14345.000,"cc",28319.715,6.00,6,0.100,10819.000,0.200,1158.000,0.300,849.000,0.500,1046.000,1.000,473.000,5.000,0
"04/06/08","17:14:07",13990.000,"cc",28293.514,6.00,6,0.100,10833.000,0.200,1061.000,0.300,766.000,0.500,922.000,1.000,408.000,5.000,0
"04/06/08","17:14:13",14190.000,"cc",28345.004,6.00,6,0.100,10754.000,0.200,1101.000,0.300,838.000,0.500,993.000,1.000,504.000,5.000,0
"04/06/08","17:14:19",14099.000,"cc",28387.611,6.00,6,0.100,10646.000,0.200,1074.000,0.300,866.000,0.500,1005.000,1.000,508.000,5.000,0
"04/06/08","17:14:25",14775.000,"cc",28279.447,6.00,6,0.100,10759.000,0.200,1205.000,0.300,993.000,0.500,1225.000,1.000,593.000,5.000,0
"04/06/08","17:14:31",14080.000,"cc",28317.195,6.00,6,0.100,10574.000,0.200,1086.000,0.300,914.000,0.500,1021.000,1.000,485.000,5.000,0
"04/06/08","17:14:37",14127.000,"cc",28313.721,6.00,6,0.100,10603.000,0.200,1082.000,0.300,865.000,0.500,1088.000,1.000,489.000,5.000,0
"04/06/08","17:14:43",14430.000,"cc",28394.127,6.00,6,0.100,10693.000,0.200,1173.000,0.300,900.000,0.500,1143.000,1.000,521.000,5.000,0
"04/06/08","17:14:49",14460.000,"cc",28404.078,6.00,6,0.100,10692.000,0.200,1147.000,0.300,922.000,0.500,1161.000,1.000,538.000,5.000,0
"04/06/08","17:14:55",13961.000,"cc",28230.781,6.00,6,0.100,10436.000,0.200,1061.000,0.300,892.000,0.500,1058.000,1.000,514.000,5.000,0
"04/06/08","17:15:01",14124.000,"cc",28296.010,6.00,6,0.100,10544.000,0.200,1131.000,0.300,916.000,0.500,1081.000,1.000,452.000,5.000,0
"04/06/08","17:15:07",14065.000,"cc",28280.531,6.00,6,0.100,10508.000,0.200,1114.000,0.300,962.000,0.500,1002.000,1.000,479.000,5.000,0
"04/06/08","17:15:13",13418.000,"cc",28275.557,6.00,6,0.100,10274.000,0.200,1027.000,0.300,773.000,0.500,914.000,1.000,430.000,5.000,0
"04/06/08","17:15:19",13471.000,"cc",28354.381,6.00,6,0.100,10337.000,0.200,1052.000,0.300,776.000,0.500,884.000,1.000,422.000,5.000,0
"04/06/08","17:15:25",13515.000,"cc",28239.766,6.00,6,0.100,10294.000,0.200,1088.000,0.300,796.000,0.500,961.000,1.000,376.000,5.000,0
"04/06/08","17:15:31",14219.000,"cc",28373.549,6.00,6,0.100,10490.000,0.200,1170.000,0.300,957.000,0.500,1071.000,1.000,531.000,5.000,0
"04/06/08","17:15:37",13208.000,"cc",28284.457,6.00,6,0.100,10258.000,0.200,962.000,0.300,728.000,0.500,903.000,1.000,357.000,5.000,0
"04/06/08","17:15:43",12602.000,"cc",28258.246,6.00,6,0.100,10177.000,0.200,826.000,0.300,624.000,0.500,693.000,1.000,282.000,5.000,0
"04/06/08","17:15:49",13141.000,"cc",28274.551,6.00,6,0.100,10349.000,0.200,940.000,0.300,694.000,0.500,841.000,1.000,317.000,5.000,0
"04/06/08","17:15:55",12354.000,"cc",28305.840,6.00,6,0.100,9999.000,0.200,830.000,0.300,599.000,0.500,656.000,1.000,270.000,5.000,0
"04/06/08","17:16:01",12375.000,"cc",28342.650,6.00,6,0.100,10069.000,0.200,736.000,0.300,631.000,0.500,663.000,1.000,276.000,5.000,0
"04/06/08","17:16:07",13150.000,"cc",28351.695,6.00,6,0.100,10389.000,0.200,912.000,0.300,694.000,0.500,829.000,1.000,326.000,5.000,0
"04/06/08","17:16:13",12677.000,"cc",28330.512,6.00,6,0.100,10121.000,0.200,886.000,0.300,643.000,0.500,727.000,1.000,300.000,5.000,0
"04/06/08","17:16:19",12979.000,"cc",28339.371,6.00,6,0.100,10148.000,0.200,921.000,0.300,710.000,0.500,861.000,1.000,339.000,5.000,0
"04/06/08","17:16:25",13287.000,"cc",28350.440,6.00,6,0.100,10198.000,0.200,1035.000,0.300,843.000,0.500,903.000,1.000,308.000,5.000,0
"04/06/08","17:16:31",13070.000,"cc",28381.922,6.00,6,0.100,10254.000,0.200,941.000,0.300,730.000,0.500,837.000,1.000,308.000,5.000,0
"04/06/08","17:16:37",13315.000,"cc",28302.106,6.00,6,0.100,10363.000,0.200,1033.000,0.300,743.000,0.500,850.000,1.000,326.000,5.000,0